• In Romania
  • List of Countries
  • For 7 days
  • Water Temperature
  • Satellite Maps
  • Weather Map
  • Weather Widgets
  • user-avatar
    Login

    Hourly Weather Ischgl

    Today, 18 January, Wednesday

    Time Temperature Precipitation Wind Pressure Humidity
    00:00 -24°C° 0 mm 1 mps 565 mmHg 96%
    01:00 -26°C° 0 mm 2 mps 566 mmHg 94%
    02:00 -26°C° 0 mm 2 mps 566 mmHg 94%
    03:00 -24°C° 0 mm 1 mps 565 mmHg 94%
    04:00 -24°C° 0 mm 1 mps 565 mmHg 94%
    05:00 -24°C° 0 mm 1 mps 565 mmHg 93%
    06:00 -24°C° 0 mm 1 mps 565 mmHg 92%
    07:00 -25°C° 0 mm 2 mps 567 mmHg 89%
    08:00 -21°C° 0 mm 2 mps 568 mmHg 90%
    09:00 -16°C° 0 mm 1 mps 570 mmHg 91%
    10:00 -14°C° 0 mm 1 mps 572 mmHg 92%
    11:00 -12°C° 0 mm 1 mps 572 mmHg 92%
    12:00 -11°C° 0 mm 1 mps 573 mmHg 93%
    13:00 -10°C° 0 mm 2 mps 574 mmHg 94%
    14:00 -10°C° 0 mm 1 mps 573 mmHg 95%
    15:00 -11°C° 0 mm 1 mps 572 mmHg 96%
    16:00 -12°C° 0 mm 1 mps 572 mmHg 96%
    17:00 -15°C° 0 mm 1 mps 570 mmHg 97%
    18:00 -19°C° 0 mm 1 mps 568 mmHg 97%
    19:00 -22°C° 0 mm 1 mps 566 mmHg 98%
    20:00 -21°C° 0 mm 1 mps 567 mmHg 97%
    21:00 -21°C° 0 mm 1 mps 567 mmHg 95%
    22:00 -21°C° 0 mm 1 mps 568 mmHg 94%
    23:00 -23°C° 0 mm 2 mps 568 mmHg 93%

    Tomorrow, 19 January, Thursday

    Time Temperature Precipitation Wind Pressure Humidity
    00:00 -23°C° 0 mm 2 mps 568 mmHg 93%
    01:00 -23°C° 0 mm 2 mps 569 mmHg 92%
    02:00 -23°C° 0 mm 2 mps 569 mmHg 92%
    03:00 -23°C° 0 mm 2 mps 568 mmHg 92%
    04:00 -23°C° 0 mm 2 mps 568 mmHg 91%
    05:00 -24°C° 0 mm 2 mps 568 mmHg 91%
    06:00 -21°C° 0 mm 1 mps 568 mmHg 90%
    07:00 -21°C° 0 mm 1 mps 568 mmHg 90%
    08:00 -18°C° 0 mm 1 mps 570 mmHg 90%
    09:00 -15°C° 0 mm 1 mps 572 mmHg 90%
    10:00 -12°C° 0 mm 1 mps 575 mmHg 91%
    11:00 -10°C° 0 mm 1 mps 575 mmHg 91%
    12:00 -9°C° 0 mm 1 mps 576 mmHg 92%
    13:00 -7°C° 0 mm 0 mps 576 mmHg 92%
    14:00 -9°C° 0 mm 1 mps 575 mmHg 93%
    15:00 -10°C° 0 mm 1 mps 575 mmHg 95%
    16:00 -11°C° 0 mm 1 mps 574 mmHg 96%
    17:00 -14°C° 0 mm 1 mps 572 mmHg 96%
    18:00 -17°C° 0 mm 1 mps 571 mmHg 95%
    19:00 -19°C° 0 mm 1 mps 569 mmHg 95%
    20:00 -19°C° 0 mm 1 mps 569 mmHg 94%
    21:00 -19°C° 0 mm 1 mps 570 mmHg 93%
    22:00 -21°C° 0 mm 2 mps 570 mmHg 92%
    23:00 -21°C° 0 mm 2 mps 570 mmHg 91%

    Day after tomorrow, 20 January, Friday

    Time Temperature Precipitation Wind Pressure Humidity
    00:00 -21°C° 0 mm 2 mps 570 mmHg 91%
    01:00 -21°C° 0 mm 2 mps 570 mmHg 90%
    02:00 -21°C° 0 mm 2 mps 570 mmHg 90%
    03:00 -21°C° 0 mm 2 mps 570 mmHg 90%
    04:00 -21°C° 0 mm 2 mps 570 mmHg 90%
    05:00 -21°C° 0 mm 2 mps 570 mmHg 90%
    06:00 -21°C° 0 mm 2 mps 570 mmHg 90%
    07:00 -20°C° 0 mm 2 mps 570 mmHg 90%
    08:00 -18°C° 0 mm 2 mps 572 mmHg 90%
    09:00 -16°C° 0 mm 2 mps 573 mmHg 91%
    10:00 -14°C° 0 mm 2 mps 575 mmHg 91%
    11:00 -10°C° 0 mm 1 mps 575 mmHg 92%
    12:00 -8°C° 0 mm 1 mps 576 mmHg 93%
    13:00 -6°C° 0 mm 1 mps 577 mmHg 93%
    14:00 -8°C° 0 mm 1 mps 576 mmHg 94%
    15:00 -9°C° 0 mm 1 mps 575 mmHg 94%
    16:00 -10°C° 0 mm 1 mps 574 mmHg 95%
    17:00 -13°C° 0 mm 1 mps 572 mmHg 94%
    18:00 -16°C° 0 mm 1 mps 571 mmHg 94%
    19:00 -19°C° 0 mm 1 mps 569 mmHg 93%
    20:00 -21°C° 0 mm 2 mps 569 mmHg 92%
    21:00 -20°C° 0 mm 2 mps 570 mmHg 92%
    22:00 -20°C° 0 mm 2 mps 570 mmHg 91%
    23:00 -20°C° 0 mm 2 mps 570 mmHg 91%

    21 January, Saturday

    Time Temperature Precipitation Wind Pressure Humidity
    00:00 -20°C° 0 mm 2 mps 570 mmHg 91%
    01:00 -20°C° 0 mm 2 mps 570 mmHg 91%
    02:00 -20°C° 0 mm 2 mps 570 mmHg 91%
    03:00 -20°C° 0 mm 2 mps 570 mmHg 90%
    04:00 -20°C° 0 mm 2 mps 570 mmHg 90%
    05:00 -20°C° 0 mm 2 mps 570 mmHg 90%
    06:00 -20°C° 0 mm 2 mps 570 mmHg 90%
    07:00 -20°C° 0 mm 2 mps 570 mmHg 90%
    08:00 -17°C° 0 mm 2 mps 571 mmHg 91%
    09:00 -15°C° 0 mm 2 mps 572 mmHg 91%
    10:00 -13°C° 0 mm 2 mps 574 mmHg 92%
    11:00 -10°C° 0 mm 2 mps 574 mmHg 93%
    12:00 -8°C° 0 mm 1 mps 575 mmHg 93%
    13:00 -6°C° 0 mm 1 mps 575 mmHg 94%
    14:00 -7°C° 0 mm 1 mps 575 mmHg 94%
    15:00 -8°C° 0 mm 1 mps 574 mmHg 95%
    16:00 -9°C° 0 mm 1 mps 573 mmHg 95%
    17:00 -14°C° 0 mm 2 mps 572 mmHg 95%
    18:00 -16°C° 0 mm 2 mps 571 mmHg 94%
    19:00 -18°C° 0 mm 2 mps 570 mmHg 94%
    20:00 -18°C° 0 mm 2 mps 570 mmHg 94%
    21:00 -18°C° 0 mm 2 mps 570 mmHg 94%
    22:00 -19°C° 0 mm 2 mps 570 mmHg 94%
    23:00 -19°C° 0 mm 2 mps 570 mmHg 94%

    22 January, Sunday

    Time Temperature Precipitation Wind Pressure Humidity
    00:00 -19°C° 0 mm 2 mps 570 mmHg 94%
    01:00 -19°C° 0 mm 2 mps 570 mmHg 94%
    02:00 -19°C° 0 mm 2 mps 570 mmHg 94%
    03:00 -18°C° 0 mm 2 mps 570 mmHg 94%
    04:00 -18°C° 0 mm 2 mps 570 mmHg 93%
    05:00 -18°C° 0 mm 2 mps 570 mmHg 93%
    06:00 -18°C° 0 mm 2 mps 570 mmHg 93%
    07:00 -18°C° 0 mm 2 mps 570 mmHg 93%
    08:00 -15°C° 0 mm 2 mps 571 mmHg 93%
    09:00 -13°C° 0 mm 2 mps 573 mmHg 93%
    10:00 -10°C° 0 mm 2 mps 574 mmHg 93%
    11:00 -9°C° 0 mm 2 mps 574 mmHg 94%
    12:00 -7°C° 0 mm 2 mps 575 mmHg 95%
    13:00 -6°C° 0 mm 2 mps 575 mmHg 96%
    14:00 -6°C° 0 mm 2 mps 575 mmHg 95%
    15:00 -7°C° 0 mm 2 mps 574 mmHg 95%
    16:00 -8°C° 0 mm 2 mps 574 mmHg 95%
    17:00 -9°C° 0 mm 2 mps 573 mmHg 95%
    18:00 -12°C° 0 mm 2 mps 572 mmHg 95%
    19:00 -13°C° 0 mm 2 mps 572 mmHg 95%
    20:00 -13°C° 0 mm 2 mps 572 mmHg 95%
    21:00 -13°C° 0 mm 2 mps 572 mmHg 95%
    22:00 -14°C° 0 mm 2 mps 572 mmHg 95%
    23:00 -13°C° 0 mm 2 mps 572 mmHg 95%

    23 January, Monday

    Time Temperature Precipitation Wind Pressure Humidity
    00:00 -13°C° 0 mm 2 mps 572 mmHg 95%
    01:00 -13°C° 0 mm 2 mps 572 mmHg 95%
    02:00 -13°C° 0 mm 2 mps 571 mmHg 95%
    03:00 -13°C° 0 mm 2 mps 571 mmHg 95%
    04:00 -13°C° 0 mm 2 mps 571 mmHg 95%
    05:00 -14°C° 0 mm 2 mps 571 mmHg 95%
    06:00 -14°C° 0 mm 2 mps 571 mmHg 95%
    07:00 -14°C° 0 mm 2 mps 571 mmHg 95%
    08:00 -12°C° 0 mm 2 mps 572 mmHg 95%
    09:00 -9°C° 0 mm 2 mps 573 mmHg 95%
    10:00 -8°C° 0 mm 2 mps 573 mmHg 95%
    11:00 -6°C° 0 mm 1 mps 574 mmHg 95%
    12:00 -4°C° 0 mm 1 mps 574 mmHg 96%
    13:00 -3°C° 0 mm 1 mps 574 mmHg 97%
    14:00 -3°C° 0 mm 1 mps 574 mmHg 96%
    15:00 -4°C° 0 mm 1 mps 573 mmHg 96%
    16:00 -4°C° 0 mm 1 mps 573 mmHg 96%
    17:00 -7°C° 0.1 mm 1 mps 572 mmHg 96%
    18:00 -9°C° 0.1 mm 1 mps 571 mmHg 96%
    19:00 -11°C° 0.1 mm 1 mps 570 mmHg 96%
    20:00 -11°C° 0.1 mm 1 mps 570 mmHg 96%
    21:00 -11°C° 0.1 mm 1 mps 570 mmHg 95%
    22:00 -11°C° 0.1 mm 1 mps 570 mmHg 95%
    23:00 -12°C° 0 mm 1 mps 569 mmHg 95%
    Show more